Location: Peterborough
(44.3091°N, 78.3197°W)
Time: 03:21:52
(UTC-04:00)

Tiros 1 - Pass Details

Date: 10 April 2023
Orbit: 627 x 661 km, 48.4° (Epoch: 09 June)

Event Time Altitude Azimuth Distance (km) Brightness Sun altitude
Rises 07:43:08 0° 283° (WNW) 2,988 9.9 10.6°
Reaches altitude 10° 07:46:35 10° 257° (WSW) 2,073 9.2 11.2°
Maximum altitude 07:48:55 14° 228° (SW) 1,840 9.1 11.7°
Drops below altitude 10° 07:51:15 10° 198° (SSW) 2,066 9.6 12.1°
Sets 07:54:41 0° 173° (S) 2,970 10.7 12.7°
